RH
43 37 33 23 22 25 50 54 56 45 39 53 40 42 40 41 54 53 46 38 44 42 43 41 29 33 39 33 37 39 28 48 55 51 42 32 33 42 44 52 36 40 41 34
51 48 40 30 25 30 53 57 62 64 46 47 37 41 41 44 55 59 47 37 39 41 39 43 34 42 47 42 31 32 38 37 43 40 42 36 29 22 26 32 45 39 56 33
59 52 45 36 28 39 61 62 70 77 65 40 36 41 42 45 52 52 51 38 35 40 39 44 41 45 44 41 36 29 34 38 33 37 30 50 52 47 35 39 50 38 35 26
66 61 49 42 32 47 68 71 55 59 62 49 37 47 46 51 49 48 52 39 34 38 40 43 38 39 41 34 29 26 28 27 25 26 34 44 38 46 46 41 41 43 34 31
76 68 59 51 40 54 72 65 55 54 56 56 44 49 45 50 50 48 50 47 36 37 39 33 37 36 40 32 27 25 26 30 36 39 36 35 33 29 29 30 32 31 30 31
86 77 64 50 50 79 82 67 53 66 57 55 49 45 51 56 56 48 48 44 42 39 48 50 50 47 51 43 42 36 37 37 44 44 37 33 36 25 24 24 27 31 33 30
84 77 65 50 62 88 69 58 66 75 61 52 37 52 60 64 50 57 54 51 42 56 54 52 49 45 56 52 53 51 51 52 57 54 47 52 26 25 24 24 24 25 29 30
67 62 63 50 80 91 70 76 86 76 76 45 57 62 68 66 51 54 69 47 53 54 46 51 49 45 45 46 49 51 52 52 56 64 48 36 32 29 25 27 29 28 27 27
63 61 54 47 77 77 79 84 82 81 79 57 44 55 64 57 52 75 77 55 53 56 51 47 45 47 39 47 45 45 45 46 52 51 59 61 39 32 29 27 35 31 31 31
56 58 42 72 85 91 84 83 89 76 96 68 55 56 50 57 55 87 75 48 52 45 51 53 46 40 39 54 57 59 53 54 58 55 60 49 40 35 34 39 43 37 35 30
52 48 57 72 81 72 81 80 88 93 87 67 60 56 56 63 57 95 68 49 46 46 48 48 44 49 46 45 42 48 53 60 65 61 71 63 35 32 34 40 36 31 30 32
50 44 71 86 91 95 97 94 84 96 93 74 59 60 62 65 60 83 62 47 42 41 43 42 49 54 52 45 45 37 44 39 47 43 48 36 33 32 33 33 33 36 37 37
76 74 88 91 97 93 94 97 91 96 69 70 76 80 65 62 59 63 59 57 46 45 45 44 47 52 43 50 44 45 38 37 38 37 33 37 37 38 40 39 41 39 41 46
88 92 88 94 98 98 83 77 71 82 69 69 68 65 57 48 64 84 65 51 48 50 48 44 42 48 40 45 41 42 41 38 35 35 37 39 44 47 43 45 45 45 48 50
85 87 94 97 97 90 95 97 91 77 63 69 71 62 54 44 46 60 59 57 54 53 52 49 49 43 45 45 42 42 38 39 42 47 45 46 53 50 48 46 47 49 53 55
95 90 93 97 94 89 86 84 68 67 69 65 78 70 60 51 46 53 58 61 66 60 55 53 49 49 49 53 50 47 43 43 46 52 50 51 48 47 48 52 55 59 61 61
89 89 89 94 94 94 90 82 74 70 65 68 74 75 64 59 52 54 58 60 67 59 53 51 52 52 55 56 59 52 49 49 49 48 51 53 53 54 59 61 64 63 63 66
89 89 93 94 92 95 94 87 81 72 66 71 75 78 69 62 63 63 58 60 59 57 58 59 66 64 63 65 57 55 55 53 51 51 53 57 62 64 65 66 65 66 69 72
87 88 93 95 94 93 90 87 80 80 71 73 77 77 71 65 68 68 67 66 68 66 71 70 70 71 69 63 61 60 61 58 55 59 62 63 65 67 67 67 70 76 79 79
88 88 91 97 94 90 87 84 78 77 83 71 75 81 73 67 72 75 74 76 79 75 75 75 78 74 68 68 63 61 60 61 64 65 67 68 68 69 72 79 82 81 81 80
88 91 92 93 90 89 83 75 77 79 87 78 78 76 81 81 85 83 82 81 80 79 75 77 71 68 61 61 62 64 67 68 69 69 70 72 78 82 84 84 84 76 68 58
84 83 87 89 86 85 84 80 84 88 88 83 78 75 75 77 77 78 82 76 70 69 64 67 67 62 64 69 71 72 72 71 72 74 77 81 83 86 86 79 68 62 55 46
80 84 85 85 86 95 89 85 86 84 79 78 77 76 73 72 69 69 67 69 71 64 71 66 66 72 78 79 76 71 70 71 75 80 84 87 83 77 71 66 63 57 47 38
82 86 92 95 94 90 86 85 85 85 83 81 77 75 74 72 73 74 72 77 74 76 77 73 79 81 77 72 71 76 82 85 87 86 82 77 74 71 66 60 54 45 37 30
88 89 90 85 82 82 86 87 85 83 81 80 79 78 76 79 79 80 83 86 88 85 83 80 75 74 76 82 87 91 90 88 86 81 79 77 73 68 61 51 43 35 29 28
98 97 96 93 93 94 93 91 91 90 89 87 86 88 88 91 91 88 89 86 81 80 79 82 85 89 93 96 96 91 89 91 89 82 77 72 69 61 49 40 33 31 33 35
97 96 97 98 97 95 95 94 94 96 96 94 92 92 91 86 84 85 86 86 87 90 92 95 98 97 97 96 95 94 90 88 87 82 75 64 54 45 38 38 38 39 42 44